Time,TemperatureF,DewpointF,PressureIn,WindDirection,WindDirectionDegrees,WindSpeedMPH,WindSpeedGustMPH,Humidity,HourlyPrecipIn,Conditions,Clouds,dailyrainin,SoftwareType,DateUTC
2013-02-25 00:00:00,60.9,59.2,29.59,ESE,103,10.0,10.0,94,0.00,CLR,,0.00,WeatherDisplay:10.37,2013-02-25 06:00:00,
2013-02-25 00:05:00,60.9,59.2,29.59,ESE,113,11.5,12.2,94,0.00,CLR,,0.00,WeatherDisplay:10.37,2013-02-25 06:05:00,
2013-02-25 00:10:00,60.9,59.2,29.59,ESE,113,11.5,11.5,94,0.00,CLR,,0.00,WeatherDisplay:10.37,2013-02-25 06:10:00,
2013-02-25 00:15:00,60.9,59.2,29.59,ESE,121,11.5,11.5,94,0.00,CLR,,0.00,WeatherDisplay:10.37,2013-02-25 06:15:00,
2013-02-25 00:20:00,60.9,59.2,29.59,SE,126,9.2,9.2,94,0.00,CLR,,0.00,WeatherDisplay:10.37,2013-02-25 06:20:00,
2013-02-25 00:25:00,61.0,59.3,29.58,ESE,120,9.2,9.2,94,0.00,CLR,,0.00,WeatherDisplay:10.37,2013-02-25 06:25:00,
2013-02-25 00:30:00,61.0,59.3,29.58,ESE,118,11.5,11.5,94,0.00,CLR,,0.00,WeatherDisplay:10.37,2013-02-25 06:30:00,
2013-02-25 00:35:00,61.0,59.3,29.58,ESE,103,9.0,9.0,94,0.00,CLR,,0.00,WeatherDisplay:10.37,2013-02-25 06:35:00,
2013-02-25 00:40:00,61.0,59.3,29.58,SE,145,10.4,10.4,94,0.00,CLR,,0.00,WeatherDisplay:10.37,2013-02-25 06:40:00,
2013-02-25 00:45:00,60.9,59.2,29.57,East,98,11.5,11.5,94,0.00,CLR,,0.00,WeatherDisplay:10.37,2013-02-25 06:45:00,
2013-02-25 00:50:00,60.9,59.2,29.58,ESE,108,13.8,13.8,94,0.00,CLR,,0.00,WeatherDisplay:10.37,2013-02-25 06:50:00,
2013-02-25 00:55:00,60.9,59.2,29.58,East,95,5.8,8.5,94,0.00,CLR,,0.00,WeatherDisplay:10.37,2013-02-25 06:55:00,
2013-02-25 01:00:00,60.9,59.2,29.58,East,101,13.8,13.8,94,0.00,CLR,,0.00,WeatherDisplay:10.37,2013-02-25 07:00:00,
2013-02-25 01:05:00,60.9,59.2,29.57,ESE,120,10.0,10.0,94,0.00,CLR,,0.00,WeatherDisplay:10.37,2013-02-25 07:05:00,
2013-02-25 01:10:00,60.9,59.2,29.57,ESE,103,11.0,11.0,94,0.00,CLR,,0.00,WeatherDisplay:10.37,2013-02-25 07:10:00,
2013-02-25 01:15:00,60.9,59.2,29.57,East,91,8.1,8.1,94,0.00,CLR,,0.00,WeatherDisplay:10.37,2013-02-25 07:15:00,
2013-02-25 01:20:00,60.8,59.1,29.57,ENE,71,10.4,10.4,94,0.00,CLR,,0.00,WeatherDisplay:10.37,2013-02-25 07:20:00,
2013-02-25 01:25:00,60.8,59.1,29.57,East,100,7.0,7.0,94,0.00,CLR,,0.00,WeatherDisplay:10.37,2013-02-25 07:25:00,
2013-02-25 01:30:00,60.8,59.1,29.57,East,82,7.0,7.0,94,0.00,CLR,,0.00,WeatherDisplay:10.37,2013-02-25 07:30:00,
2013-02-25 01:35:00,60.8,59.1,29.57,ESE,121,5.8,5.8,94,0.00,CLR,,0.00,WeatherDisplay:10.37,2013-02-25 07:35:00,
2013-02-25 01:40:00,60.8,59.1,29.57,ENE,72,4.6,4.6,94,0.00,CLR,,0.00,WeatherDisplay:10.37,2013-02-25 07:40:00,
2013-02-25 01:45:00,60.8,59.1,29.57,SSE,162,3.5,3.5,94,0.00,CLR,,0.00,WeatherDisplay:10.37,2013-02-25 07:45:00,
2013-02-25 01:50:00,60.8,59.1,29.57,SSE,159,3.5,3.5,94,0.00,CLR,,0.00,WeatherDisplay:10.37,2013-02-25 07:50:00,
2013-02-25 01:55:00,60.7,59.0,29.57,SSE,160,2.3,2.3,94,0.00,CLR,,0.00,WeatherDisplay:10.37,2013-02-25 07:55:00,
2013-02-25 02:00:00,60.7,59.0,29.58,SSE,164,4.0,4.0,94,0.00,CLR,,0.00,WeatherDisplay:10.37,2013-02-25 08:00:00,
2013-02-25 02:05:00,60.7,59.0,29.58,SSE,154,2.0,2.0,94,0.00,CLR,,0.00,WeatherDisplay:10.37,2013-02-25 08:05:00,
2013-02-25 02:10:00,60.7,59.0,29.58,South,170,3.5,3.5,94,0.00,CLR,,0.00,WeatherDisplay:10.37,2013-02-25 08:10:00,
2013-02-25 02:15:00,60.8,59.1,29.58,SSE,163,3.5,3.5,94,0.00,CLR,,0.00,WeatherDisplay:10.37,2013-02-25 08:15:00,
2013-02-25 02:20:00,60.8,59.1,29.58,SSE,161,3.5,3.5,94,0.00,CLR,,0.00,WeatherDisplay:10.37,2013-02-25 08:20:00,
2013-02-25 02:25:00,60.8,59.1,29.58,SSW,194,3.5,3.5,94,0.00,CLR,,0.00,WeatherDisplay:10.37,2013-02-25 08:25:00,
2013-02-25 02:30:00,60.8,59.1,29.58,South,170,3.5,3.5,94,0.00,CLR,,0.00,WeatherDisplay:10.37,2013-02-25 08:30:00,
2013-02-25 02:35:00,60.8,59.1,29.58,SSE,167,3.5,3.5,94,0.00,CLR,,0.00,WeatherDisplay:10.37,2013-02-25 08:35:00,
2013-02-25 02:40:00,60.8,59.1,29.58,SSE,153,3.5,3.5,94,0.00,CLR,,0.00,WeatherDisplay:10.37,2013-02-25 08:40:00,
2013-02-25 02:45:00,60.8,59.4,29.57,South,177,5.8,5.8,95,0.00,CLR,,0.00,WeatherDisplay:10.37,2013-02-25 08:45:00,
2013-02-25 02:50:00,60.7,59.3,29.57,South,172,5.0,5.0,95,0.00,CLR,,0.00,WeatherDisplay:10.37,2013-02-25 08:50:00,
2013-02-25 02:55:00,60.8,59.4,29.58,South,187,4.6,4.6,95,0.00,CLR,,0.00,WeatherDisplay:10.37,2013-02-25 08:55:00,
2013-02-25 03:00:00,60.8,59.4,29.57,SSE,162,5.8,5.8,95,0.00,CLR,,0.00,WeatherDisplay:10.37,2013-02-25 09:00:00,
2013-02-25 03:05:00,60.8,59.4,29.57,SSW,192,3.5,3.5,95,0.00,CLR,,0.00,WeatherDisplay:10.37,2013-02-25 09:05:00,
2013-02-25 03:10:00,60.7,59.3,29.58,SSW,197,2.3,2.3,95,0.00,CLR,,0.00,WeatherDisplay:10.37,2013-02-25 09:10:00,
2013-02-25 03:15:00,60.7,59.3,29.58,SSW,204,3.5,3.5,95,0.00,CLR,,0.00,WeatherDisplay:10.37,2013-02-25 09:15:00,
2013-02-25 03:20:00,60.7,59.3,29.58,SSW,208,1.1,0.0,95,0.00,CLR,,0.00,WeatherDisplay:10.37,2013-02-25 09:20:00,
2013-02-25 03:25:00,60.7,59.3,29.58,SSW,200,1.1,1.1,95,0.00,CLR,,0.00,WeatherDisplay:10.37,2013-02-25 09:25:00,
2013-02-25 03:30:00,60.6,59.2,29.58,SSW,200,0.0,0.0,95,0.00,CLR,,0.00,WeatherDisplay:10.37,2013-02-25 09:30:00,
2013-02-25 03:35:00,60.6,59.2,29.57,ENE,60,1.1,1.1,95,0.00,CLR,,0.00,WeatherDisplay:10.37,2013-02-25 09:35:00,
2013-02-25 03:40:00,60.6,59.2,29.57,ENE,60,1.1,1.1,95,0.00,CLR,,0.00,WeatherDisplay:10.37,2013-02-25 09:40:00,
2013-02-25 03:45:00,60.5,59.1,29.57,ENE,60,1.1,1.1,95,0.00,CLR,,0.00,WeatherDisplay:10.37,2013-02-25 09:45:00,
2013-02-25 03:50:00,60.4,59.0,29.58,NW,326,2.3,2.3,95,0.00,CLR,,0.00,WeatherDisplay:10.37,2013-02-25 09:50:00,
2013-02-25 03:55:00,60.4,59.0,29.57,NW,326,0.0,0.0,95,0.00,CLR,,0.00,WeatherDisplay:10.37,2013-02-25 09:55:00,
2013-02-25 04:00:00,60.4,59.0,29.58,West,277,0.0,0.7,95,0.00,CLR,,0.00,WeatherDisplay:10.37,2013-02-25 10:00:00,
2013-02-25 04:05:00,60.2,58.8,29.58,West,269,2.3,2.3,95,0.00,CLR,,0.00,WeatherDisplay:10.37,2013-02-25 10:05:00,
2013-02-25 04:10:00,60.2,58.8,29.58,West,266,1.1,1.1,95,0.00,CLR,,0.00,WeatherDisplay:10.37,2013-02-25 10:10:00,
2013-02-25 04:15:00,60.3,58.9,29.59,West,281,2.3,2.3,95,0.00,CLR,,0.00,WeatherDisplay:10.37,2013-02-25 10:15:00,
2013-02-25 04:20:00,60.4,59.0,29.60,WNW,299,3.5,3.5,95,0.00,CLR,,0.00,WeatherDisplay:10.37,2013-02-25 10:20:00,
2013-02-25 04:25:00,60.3,58.9,29.60,North,359,4.6,4.6,95,0.00,CLR,,0.00,WeatherDisplay:10.37,2013-02-25 10:25:00,
2013-02-25 04:30:00,60.4,59.0,29.60,WNW,293,5.8,5.8,95,0.00,CLR,,0.00,WeatherDisplay:10.37,2013-02-25 10:30:00,
2013-02-25 04:35:00,60.5,59.4,29.60,NW,305,3.5,3.5,96,0.01,RA,,0.01,WeatherDisplay:10.37,2013-02-25 10:35:00,
2013-02-25 04:40:00,60.6,59.2,29.59,WNW,288,1.1,1.1,95,0.02,RA,,0.02,WeatherDisplay:10.37,2013-02-25 10:40:00,
2013-02-25 04:45:00,60.5,59.1,29.58,WNW,288,0.0,0.0,95,0.02,RA,,0.02,WeatherDisplay:10.37,2013-02-25 10:45:00,
2013-02-25 04:50:00,60.5,59.1,29.58,WNW,288,0.0,0.0,95,0.02,CLR,,0.02,WeatherDisplay:10.37,2013-02-25 10:50:00,
2013-02-25 04:55:00,60.4,59.0,29.58,WNW,288,0.0,0.0,95,0.02,CLR,,0.02,WeatherDisplay:10.37,2013-02-25 10:55:00,
2013-02-25 05:00:00,60.3,58.9,29.58,WNW,288,0.0,0.0,95,0.02,CLR,,0.02,WeatherDisplay:10.37,2013-02-25 11:00:00,
2013-02-25 05:05:00,60.2,59.1,29.58,WNW,288,0.0,0.0,96,0.02,CLR,,0.02,WeatherDisplay:10.37,2013-02-25 11:05:00,
2013-02-25 05:10:00,60.0,58.6,29.58,WNW,288,0.0,0.0,95,0.02,CLR,,0.02,WeatherDisplay:10.37,2013-02-25 11:10:00,
2013-02-25 05:15:00,60.0,58.9,29.58,WNW,288,0.0,0.0,96,0.02,CLR,,0.02,WeatherDisplay:10.37,2013-02-25 11:15:00,
2013-02-25 05:20:00,60.0,58.9,29.58,WNW,288,0.0,0.0,96,0.02,CLR,,0.02,WeatherDisplay:10.37,2013-02-25 11:20:00,
2013-02-25 05:25:00,59.8,58.7,29.58,WNW,288,0.0,0.0,96,0.02,CLR,,0.02,WeatherDisplay:10.37,2013-02-25 11:25:00,
2013-02-25 05:30:00,59.7,58.6,29.59,WNW,285,1.1,1.1,96,0.02,CLR,,0.02,WeatherDisplay:10.37,2013-02-25 11:30:00,
2013-02-25 05:35:00,59.7,58.6,29.59,West,263,1.1,1.1,96,0.01,CLR,,0.02,WeatherDisplay:10.37,2013-02-25 11:35:00,
2013-02-25 05:40:00,59.7,58.6,29.59,West,273,1.1,1.1,96,0.00,CLR,,0.02,WeatherDisplay:10.37,2013-02-25 11:40:00,
2013-02-25 05:45:00,59.7,58.6,29.61,NNW,338,10.4,10.4,96,0.00,CLR,,0.02,WeatherDisplay:10.37,2013-02-25 11:45:00,
2013-02-25 05:50:00,59.7,58.6,29.62,West,259,5.8,5.8,96,0.00,CLR,,0.02,WeatherDisplay:10.37,2013-02-25 11:50:00,
2013-02-25 05:55:00,59.1,57.7,29.62,NNW,332,11.5,11.5,95,0.00,CLR,,0.02,WeatherDisplay:10.37,2013-02-25 11:55:00,
2013-02-25 06:00:00,57.8,54.3,29.63,NW,311,17.3,17.3,88,0.00,CLR,,0.02,WeatherDisplay:10.37,2013-02-25 12:00:00,
2013-02-25 06:05:00,58.5,51.3,29.62,WNW,299,12.7,12.7,77,0.00,CLR,,0.02,WeatherDisplay:10.37,2013-02-25 12:05:00,
2013-02-25 06:10:00,58.5,51.7,29.63,WNW,298,6.9,6.9,78,0.00,CLR,,0.02,WeatherDisplay:10.37,2013-02-25 12:10:00,
2013-02-25 06:15:00,58.3,51.1,29.62,NW,316,8.1,8.1,77,0.00,CLR,,0.02,WeatherDisplay:10.37,2013-02-25 12:15:00,
2013-02-25 06:20:00,58.2,48.8,29.62,NW,311,8.1,8.1,71,0.00,CLR,,0.02,WeatherDisplay:10.37,2013-02-25 12:20:00,
2013-02-25 06:25:00,57.9,48.6,29.62,NW,305,5.8,5.8,71,0.00,CLR,,0.02,WeatherDisplay:10.37,2013-02-25 12:25:00,
2013-02-25 06:30:00,57.4,48.4,29.63,WNW,301,4.6,4.6,72,0.00,CLR,,0.02,WeatherDisplay:10.37,2013-02-25 12:30:00,
2013-02-25 06:35:00,57.1,47.0,29.64,NW,315,5.8,5.8,69,0.00,CLR,,0.02,WeatherDisplay:10.37,2013-02-25 12:35:00,
2013-02-25 06:40:00,57.1,46.6,29.64,NW,307,5.8,5.8,68,0.00,CLR,,0.02,WeatherDisplay:10.37,2013-02-25 12:40:00,
2013-02-25 06:45:00,56.9,46.1,29.64,WNW,297,6.9,6.9,67,0.00,CLR,,0.02,WeatherDisplay:10.37,2013-02-25 12:45:00,
2013-02-25 06:51:00,56.7,45.1,29.64,WNW,288,8.1,8.1,65,0.00,CLR,,0.02,WeatherDisplay:10.37,2013-02-25 12:51:00,
2013-02-25 06:56:00,56.8,43.9,29.65,NNW,330,10.4,10.4,62,0.00,CLR,,0.02,WeatherDisplay:10.37,2013-02-25 12:56:00,
2013-02-25 07:02:00,57.2,43.0,29.65,WNW,302,11.5,11.5,59,0.00,CLR,,0.02,WeatherDisplay:10.37,2013-02-25 13:02:00,
2013-02-25 07:07:00,57.4,42.3,29.65,WNW,303,10.4,10.4,57,0.00,CLR,,0.02,WeatherDisplay:10.37,2013-02-25 13:07:00,
2013-02-25 07:12:00,57.5,41.9,29.65,NW,326,11.5,11.5,56,0.00,CLR,,0.02,WeatherDisplay:10.37,2013-02-25 13:12:00,
2013-02-25 07:17:00,57.6,42.5,29.66,WSW,253,5.8,5.8,57,0.00,CLR,,0.02,WeatherDisplay:10.37,2013-02-25 13:17:00,
2013-02-25 07:22:00,57.6,42.0,29.66,NW,305,8.1,8.1,56,0.00,CLR,,0.02,WeatherDisplay:10.37,2013-02-25 13:22:00,
2013-02-25 07:27:00,57.6,41.1,29.66,NW,325,9.2,9.2,54,0.00,CLR,,0.02,WeatherDisplay:10.37,2013-02-25 13:27:00,
2013-02-25 07:32:00,57.8,40.8,29.66,NW,308,6.9,6.9,53,0.00,CLR,,0.02,WeatherDisplay:10.37,2013-02-25 13:32:00,
2013-02-25 07:37:00,58.0,40.5,29.67,WNW,298,8.1,8.1,52,0.00,CLR,,0.02,WeatherDisplay:10.37,2013-02-25 13:37:00,
2013-02-25 07:42:00,58.1,39.5,29.67,NW,305,6.9,6.9,50,0.00,CLR,,0.02,WeatherDisplay:10.37,2013-02-25 13:42:00,
2013-02-25 07:47:00,58.4,38.8,29.67,NNW,340,9.2,9.2,48,0.00,CLR,,0.02,WeatherDisplay:10.37,2013-02-25 13:47:00,
2013-02-25 07:52:00,58.8,38.1,29.67,NW,312,11.5,11.5,46,0.00,CLR,,0.02,WeatherDisplay:10.37,2013-02-25 13:52:00,
2013-02-25 07:57:00,58.9,37.6,29.67,WNW,282,9.2,9.2,45,0.00,CLR,,0.02,WeatherDisplay:10.37,2013-02-25 13:57:00,
2013-02-25 08:02:00,58.9,38.1,29.67,WNW,302,10.4,10.4,46,0.00,CLR,,0.02,WeatherDisplay:10.37,2013-02-25 14:02:00,
2013-02-25 08:07:00,59.1,37.2,29.68,NW,325,11.5,11.5,44,0.00,CLR,,0.02,WeatherDisplay:10.37,2013-02-25 14:07:00,
2013-02-25 08:12:00,59.1,37.2,29.68,NW,319,6.9,6.9,44,0.00,CLR,,0.02,WeatherDisplay:10.37,2013-02-25 14:12:00,
2013-02-25 08:17:00,59.2,36.1,29.68,NE,41,15.0,15.0,42,0.00,CLR,,0.02,WeatherDisplay:10.37,2013-02-25 14:17:00,
2013-02-25 08:22:00,59.2,35.5,29.68,West,273,12.7,12.7,41,0.00,CLR,,0.02,WeatherDisplay:10.37,2013-02-25 14:22:00,
2013-02-25 08:27:00,59.2,36.7,29.68,WSW,255,9.2,9.2,43,0.00,CLR,,0.02,WeatherDisplay:10.37,2013-02-25 14:27:00,
2013-02-25 08:32:00,59.4,35.7,29.68,West,259,5.8,5.8,41,0.00,CLR,,0.02,WeatherDisplay:10.37,2013-02-25 14:32:00,
2013-02-25 08:37:00,59.5,33.9,29.69,NW,305,11.5,11.5,38,0.00,CLR,,0.02,WeatherDisplay:10.37,2013-02-25 14:37:00,
2013-02-25 08:42:00,59.8,35.4,29.69,NW,312,11.5,11.5,40,0.00,CLR,,0.02,WeatherDisplay:10.37,2013-02-25 14:42:00,
2013-02-25 08:47:00,60.3,33.2,29.69,West,260,11.5,11.5,36,0.00,CLR,,0.02,WeatherDisplay:10.37,2013-02-25 14:47:00,
2013-02-25 08:52:00,60.7,32.9,29.69,WSW,243,12.7,12.7,35,0.00,CLR,,0.02,WeatherDisplay:10.37,2013-02-25 14:52:00,
2013-02-25 08:57:00,61.1,32.5,29.69,NW,315,12.7,12.7,34,0.00,CLR,,0.02,WeatherDisplay:10.37,2013-02-25 14:57:00,
2013-02-25 09:02:00,61.4,30.5,29.69,WNW,290,18.4,18.4,31,0.00,CLR,,0.02,WeatherDisplay:10.37,2013-02-25 15:02:00,
2013-02-25 09:07:00,61.4,29.7,29.69,WNW,285,19.6,19.6,30,0.00,CLR,,0.02,WeatherDisplay:10.37,2013-02-25 15:07:00,
2013-02-25 09:12:00,61.6,28.1,29.70,NNW,343,16.1,16.1,28,0.00,CLR,,0.02,WeatherDisplay:10.37,2013-02-25 15:12:00,
2013-02-25 09:17:00,61.7,28.2,29.70,WNW,297,16.1,16.1,28,0.00,CLR,,0.02,WeatherDisplay:10.37,2013-02-25 15:17:00,
2013-02-25 09:22:00,61.8,26.5,29.69,WNW,285,18.4,18.4,26,0.00,CLR,,0.02,WeatherDisplay:10.37,2013-02-25 15:22:00,
2013-02-25 09:27:00,61.9,24.7,29.70,WNW,301,18.4,18.4,24,0.00,CLR,,0.02,WeatherDisplay:10.37,2013-02-25 15:27:00,
2013-02-25 09:32:00,62.1,25.8,29.69,NW,309,16.1,16.1,25,0.00,CLR,,0.02,WeatherDisplay:10.37,2013-02-25 15:32:00,
2013-02-25 09:37:00,62.1,24.8,29.69,NW,305,19.6,19.6,24,0.00,CLR,,0.02,WeatherDisplay:10.37,2013-02-25 15:37:00,
2013-02-25 09:42:00,62.3,26.0,29.70,West,280,12.7,12.7,25,0.00,CLR,,0.02,WeatherDisplay:10.37,2013-02-25 15:42:00,
2013-02-25 09:47:00,62.5,26.2,29.70,WNW,288,13.8,13.8,25,0.00,CLR,,0.02,WeatherDisplay:10.37,2013-02-25 15:47:00,
2013-02-25 09:52:00,62.6,25.3,29.69,WNW,299,12.7,12.7,24,0.00,CLR,,0.02,WeatherDisplay:10.37,2013-02-25 15:52:00,
2013-02-25 09:57:00,62.7,25.3,29.70,WNW,290,11.5,11.5,24,0.00,CLR,,0.02,WeatherDisplay:10.37,2013-02-25 15:57:00,
2013-02-25 10:02:00,63.1,26.7,29.70,NW,312,13.8,13.8,25,0.00,CLR,,0.02,WeatherDisplay:10.37,2013-02-25 16:02:00,
2013-02-25 10:07:00,63.2,25.8,29.69,SW,225,15.0,15.0,24,0.00,CLR,,0.02,WeatherDisplay:10.37,2013-02-25 16:07:00,
2013-02-25 10:12:00,63.0,22.4,29.69,West,274,26.5,26.5,21,0.00,CLR,,0.02,WeatherDisplay:10.37,2013-02-25 16:12:00,
2013-02-25 10:17:00,63.3,23.8,29.69,WNW,300,17.3,17.3,22,0.00,CLR,,0.02,WeatherDisplay:10.37,2013-02-25 16:17:00,
2013-02-25 10:22:00,64.0,24.4,29.68,West,271,12.7,12.7,22,0.00,CLR,,0.02,WeatherDisplay:10.37,2013-02-25 16:22:00,
2013-02-25 10:27:00,64.3,21.1,29.68,NW,319,19.6,19.6,19,0.00,CLR,,0.02,WeatherDisplay:10.37,2013-02-25 16:27:00,
2013-02-25 10:32:00,64.5,21.3,29.68,WNW,301,20.7,20.7,19,0.00,CLR,,0.02,WeatherDisplay:10.37,2013-02-25 16:32:00,
2013-02-25 10:37:00,64.7,21.4,29.68,West,274,18.4,18.4,19,0.00,CLR,,0.02,WeatherDisplay:10.37,2013-02-25 16:37:00,
2013-02-25 10:42:00,65.0,19.1,29.68,NW,311,26.5,26.5,17,0.00,CLR,,0.02,WeatherDisplay:10.37,2013-02-25 16:42:00,
2013-02-25 10:47:00,65.0,20.4,29.68,NNW,340,26.5,26.5,18,0.00,CLR,,0.02,WeatherDisplay:10.37,2013-02-25 16:47:00,
2013-02-25 10:52:00,65.1,20.5,29.68,SW,236,27.6,27.6,18,0.00,CLR,,0.02,WeatherDisplay:10.37,2013-02-25 16:52:00,
2013-02-25 10:57:00,65.4,20.7,29.68,WNW,288,25.3,25.3,18,0.00,CLR,,0.02,WeatherDisplay:10.37,2013-02-25 16:57:00,
2013-02-25 11:02:00,65.0,17.7,29.69,WSW,240,19.6,23.5,16,0.00,CLR,,0.02,WeatherDisplay:10.37,2013-02-25 17:02:00,
2013-02-25 11:07:00,64.8,18.9,29.69,WNW,283,27.6,27.6,17,0.00,CLR,,0.02,WeatherDisplay:10.37,2013-02-25 17:07:00,
2013-02-25 11:12:00,64.2,17.0,29.69,West,263,33.4,33.4,16,0.00,CLR,,0.02,WeatherDisplay:10.37,2013-02-25 17:12:00,
2013-02-25 11:17:00,64.3,18.5,29.69,NW,311,18.4,18.4,17,0.00,CLR,,0.02,WeatherDisplay:10.37,2013-02-25 17:17:00,
2013-02-25 11:22:00,64.2,17.0,29.69,WSW,257,26.5,26.5,16,0.00,CLR,,0.02,WeatherDisplay:10.37,2013-02-25 17:22:00,
2013-02-25 11:27:00,64.5,17.3,29.69,WNW,294,23.0,23.0,16,0.00,CLR,,0.02,WeatherDisplay:10.37,2013-02-25 17:27:00,
2013-02-25 11:32:00,64.8,17.5,29.69,West,270,19.6,19.6,16,0.00,CLR,,0.02,WeatherDisplay:10.37,2013-02-25 17:32:00,
2013-02-25 11:37:00,65.4,18.0,29.69,WSW,255,23.0,23.0,16,0.00,CLR,,0.02,WeatherDisplay:10.37,2013-02-25 17:37:00,
2013-02-25 11:42:00,65.3,19.3,29.69,WSW,245,15.0,15.0,17,0.00,CLR,,0.02,WeatherDisplay:10.37,2013-02-25 17:42:00,
2013-02-25 11:47:00,65.2,19.2,29.69,WSW,239,23.0,23.0,17,0.00,CLR,,0.02,WeatherDisplay:10.37,2013-02-25 17:47:00,
2013-02-25 11:52:00,65.3,20.7,29.69,West,267,19.6,19.6,18,0.00,CLR,,0.02,WeatherDisplay:10.37,2013-02-25 17:52:00,
2013-02-25 11:57:00,65.2,17.8,29.69,WSW,238,26.5,26.5,16,0.00,CLR,,0.02,WeatherDisplay:10.37,2013-02-25 17:57:00,
2013-02-25 12:02:00,65.1,17.7,29.69,WSW,257,25.3,25.3,16,0.00,CLR,,0.02,WeatherDisplay:10.37,2013-02-25 18:02:00,
2013-02-25 12:07:00,65.6,22.2,29.69,North,352,17.3,17.3,19,0.00,CLR,,0.02,WeatherDisplay:10.37,2013-02-25 18:07:00,
2013-02-25 12:12:00,65.7,19.6,29.68,WSW,237,26.5,26.5,17,0.00,CLR,,0.02,WeatherDisplay:10.37,2013-02-25 18:12:00,
2013-02-25 12:17:00,65.1,21.8,29.68,WNW,287,26.5,26.5,19,0.00,CLR,,0.02,WeatherDisplay:10.37,2013-02-25 18:17:00,
2013-02-25 12:22:00,65.3,23.2,29.68,WSW,255,31.1,31.1,20,0.00,CLR,,0.02,WeatherDisplay:10.37,2013-02-25 18:22:00,
2013-02-25 12:27:00,64.7,22.7,29.68,WNW,287,26.5,26.5,20,0.00,CLR,,0.02,WeatherDisplay:10.37,2013-02-25 18:27:00,
2013-02-25 12:32:00,64.5,23.7,29.68,West,263,23.0,23.0,21,0.00,CLR,,0.02,WeatherDisplay:10.37,2013-02-25 18:32:00,
2013-02-25 12:37:00,64.5,23.7,29.68,SW,233,26.5,26.5,21,0.00,CLR,,0.02,WeatherDisplay:10.37,2013-02-25 18:37:00,
2013-02-25 12:42:00,64.8,23.9,29.68,West,278,20.7,23.8,21,0.00,CLR,,0.02,WeatherDisplay:10.37,2013-02-25 18:42:00,
2013-02-25 12:47:00,64.5,24.8,29.68,SW,225,31.1,31.1,22,0.00,CLR,,0.02,WeatherDisplay:10.37,2013-02-25 18:47:00,
2013-02-25 12:52:00,64.4,26.8,29.68,NW,319,23.0,23.0,24,0.00,CLR,,0.02,WeatherDisplay:10.37,2013-02-25 18:52:00,
2013-02-25 12:57:00,64.9,27.2,29.67,West,276,26.5,26.5,24,0.00,CLR,,0.02,WeatherDisplay:10.37,2013-02-25 18:57:00,
2013-02-25 13:02:00,64.5,27.9,29.68,West,262,20.7,20.7,25,0.00,CLR,,0.02,WeatherDisplay:10.37,2013-02-25 19:02:00,
2013-02-25 13:07:00,64.3,27.7,29.68,WNW,290,27.6,27.6,25,0.00,CLR,,0.02,WeatherDisplay:10.37,2013-02-25 19:07:00,
2013-02-25 13:12:00,64.2,27.6,29.68,NW,309,26.5,26.5,25,0.00,CLR,,0.02,WeatherDisplay:10.37,2013-02-25 19:12:00,
2013-02-25 13:17:00,64.2,28.6,29.68,WNW,288,27.6,27.6,26,0.00,CLR,,0.02,WeatherDisplay:10.37,2013-02-25 19:17:00,
2013-02-25 13:22:00,63.6,29.0,29.68,WSW,257,28.8,28.8,27,0.00,CLR,,0.02,WeatherDisplay:10.37,2013-02-25 19:22:00,
2013-02-25 13:27:00,63.8,30.0,29.68,West,262,32.2,32.2,28,0.00,CLR,,0.02,WeatherDisplay:10.37,2013-02-25 19:27:00,
2013-02-25 13:32:00,63.6,29.9,29.68,West,277,28.8,28.8,28,0.00,CLR,,0.02,WeatherDisplay:10.37,2013-02-25 19:32:00,
2013-02-25 13:37:00,63.5,28.9,29.68,WSW,249,30.0,30.0,27,0.00,CLR,,0.02,WeatherDisplay:10.37,2013-02-25 19:37:00,
2013-02-25 13:42:00,63.1,28.5,29.69,West,269,31.1,31.1,27,0.00,CLR,,0.02,WeatherDisplay:10.37,2013-02-25 19:42:00,
2013-02-25 13:47:00,62.5,28.0,29.68,West,277,29.9,29.9,27,0.00,CLR,,0.02,WeatherDisplay:10.37,2013-02-25 19:47:00,
2013-02-25 13:52:00,61.7,28.2,29.68,WSW,252,39.1,39.1,28,0.00,,,0.02,WeatherDisplay:10.37,2013-02-25 19:52:00,
2013-02-25 13:57:00,61.8,29.2,29.68,North,4,27.6,27.6,29,0.00,CLR,,0.02,WeatherDisplay:10.37,2013-02-25 19:57:00,
2013-02-25 14:02:00,62.0,28.5,29.69,WSW,244,21.9,21.9,28,0.00,CLR,,0.02,WeatherDisplay:10.37,2013-02-25 20:02:00,
2013-02-25 14:07:00,61.8,29.2,29.68,SW,235,21.9,21.9,29,0.00,CLR,,0.02,WeatherDisplay:10.37,2013-02-25 20:07:00,
2013-02-25 14:12:00,61.9,27.5,29.68,West,264,26.5,26.5,27,0.00,CLR,,0.02,WeatherDisplay:10.37,2013-02-25 20:12:00,
2013-02-25 14:17:00,61.7,28.2,29.69,West,264,38.0,38.0,28,0.00,CLR,,0.02,WeatherDisplay:10.37,2013-02-25 20:17:00,
2013-02-25 14:22:00,61.1,27.7,29.69,West,261,36.8,36.8,28,0.00,CLR,,0.02,WeatherDisplay:10.37,2013-02-25 20:22:00,
2013-02-25 14:27:00,60.7,27.4,29.69,WNW,294,23.0,23.0,28,0.00,CLR,,0.02,WeatherDisplay:10.37,2013-02-25 20:27:00,
2013-02-25 14:32:00,60.8,27.5,29.69,West,271,26.5,26.5,28,0.00,CLR,,0.02,WeatherDisplay:10.37,2013-02-25 20:32:00,
2013-02-25 14:37:00,60.9,27.5,29.68,ESE,103,27.6,27.6,28,0.00,CLR,,0.02,WeatherDisplay:10.37,2013-02-25 20:37:00,
2013-02-25 14:42:00,60.9,26.7,29.69,West,263,41.4,41.4,27,0.00,CLR,,0.02,WeatherDisplay:10.37,2013-02-25 20:42:00,
2013-02-25 14:47:00,60.8,26.6,29.70,SW,215,35.7,35.7,27,0.00,CLR,,0.02,WeatherDisplay:10.37,2013-02-25 20:47:00,
2013-02-25 14:52:00,61.3,27.0,29.69,West,264,39.1,39.1,27,0.00,CLR,,0.02,WeatherDisplay:10.37,2013-02-25 20:52:00,
2013-02-25 14:57:00,60.8,25.7,29.69,WSW,255,41.4,41.4,26,0.00,,,0.02,WeatherDisplay:10.37,2013-02-25 20:57:00,
2013-02-25 15:02:00,60.9,26.7,29.70,West,267,33.4,33.4,27,0.00,CLR,,0.02,WeatherDisplay:10.37,2013-02-25 21:02:00,
2013-02-25 15:07:00,60.5,26.3,29.69,WSW,243,34.5,34.5,27,0.00,CLR,,0.02,WeatherDisplay:10.37,2013-02-25 21:07:00,
2013-02-25 15:12:00,60.4,26.2,29.70,SSW,207,40.3,40.3,27,0.00,CLR,,0.02,WeatherDisplay:10.37,2013-02-25 21:12:00,
2013-02-25 15:17:00,60.5,26.3,29.70,West,267,29.9,29.9,27,0.00,CLR,,0.02,WeatherDisplay:10.37,2013-02-25 21:17:00,
2013-02-25 15:22:00,60.5,27.2,29.71,West,278,25.3,25.3,28,0.00,CLR,,0.02,WeatherDisplay:10.37,2013-02-25 21:22:00,
2013-02-25 15:27:00,60.5,27.2,29.71,West,263,24.2,24.2,28,0.00,CLR,,0.02,WeatherDisplay:10.37,2013-02-25 21:27:00,
2013-02-25 15:32:00,60.4,27.1,29.71,SW,229,27.6,27.6,28,0.00,CLR,,0.02,WeatherDisplay:10.37,2013-02-25 21:32:00,
2013-02-25 15:37:00,60.2,26.9,29.72,West,262,28.8,28.8,28,0.00,CLR,,0.02,WeatherDisplay:10.37,2013-02-25 21:37:00,
2013-02-25 15:42:00,60.2,27.8,29.72,WSW,249,21.9,21.9,29,0.00,CLR,,0.02,WeatherDisplay:10.37,2013-02-25 21:42:00,
2013-02-25 15:47:00,60.1,27.7,29.72,West,259,26.5,26.5,29,0.00,CLR,,0.02,WeatherDisplay:10.37,2013-02-25 21:47:00,
2013-02-25 15:52:00,59.6,28.1,29.72,NW,318,25.3,25.3,30,0.00,CLR,,0.02,WeatherDisplay:10.37,2013-02-25 21:52:00,
2013-02-25 15:57:00,59.5,28.0,29.72,West,277,32.2,32.2,30,0.00,CLR,,0.02,WeatherDisplay:10.37,2013-02-25 21:57:00,
2013-02-25 16:02:00,59.1,27.7,29.72,WSW,246,34.5,34.5,30,0.00,CLR,,0.02,WeatherDisplay:10.37,2013-02-25 22:02:00,
2013-02-25 16:07:00,59.0,27.6,29.71,WNW,288,33.4,33.4,30,0.00,CLR,,0.02,WeatherDisplay:10.37,2013-02-25 22:07:00,
2013-02-25 16:12:00,59.1,27.7,29.72,West,264,31.1,31.1,30,0.00,CLR,,0.02,WeatherDisplay:10.37,2013-02-25 22:12:00,
2013-02-25 16:17:00,59.0,28.4,29.71,West,273,33.4,33.4,31,0.00,CLR,,0.02,WeatherDisplay:10.37,2013-02-25 22:17:00,
2013-02-25 16:22:00,58.7,28.1,29.71,West,262,33.4,33.4,31,0.00,CLR,,0.02,WeatherDisplay:10.37,2013-02-25 22:22:00,
2013-02-25 16:27:00,58.8,28.2,29.72,WNW,294,26.5,26.5,31,0.00,CLR,,0.02,WeatherDisplay:10.37,2013-02-25 22:27:00,
2013-02-25 16:32:00,58.7,28.1,29.72,WNW,295,21.9,21.9,31,0.00,CLR,,0.02,WeatherDisplay:10.37,2013-02-25 22:32:00,
2013-02-25 16:37:00,59.0,28.4,29.72,West,261,31.0,31.0,31,0.00,CLR,,0.02,WeatherDisplay:10.37,2013-02-25 22:37:00,
2013-02-25 16:42:00,58.8,27.4,29.72,WNW,294,35.7,35.7,30,0.00,CLR,,0.02,WeatherDisplay:10.37,2013-02-25 22:42:00,
2013-02-25 16:48:00,58.6,28.0,29.72,NW,308,27.6,27.6,31,0.00,CLR,,0.02,WeatherDisplay:10.37,2013-02-25 22:48:00,
2013-02-25 16:53:00,58.3,27.8,29.72,ESE,120,20.7,20.7,31,0.00,CLR,,0.02,WeatherDisplay:10.37,2013-02-25 22:53:00,
2013-02-25 16:58:00,58.2,27.7,29.73,WNW,294,24.2,24.2,31,0.00,CLR,,0.02,WeatherDisplay:10.37,2013-02-25 22:58:00,
2013-02-25 17:03:00,58.0,28.3,29.73,SW,220,20.7,20.7,32,0.00,CLR,,0.02,WeatherDisplay:10.37,2013-02-25 23:03:00,
2013-02-25 17:08:00,57.8,28.1,29.73,West,270,26.5,26.5,32,0.00,CLR,,0.02,WeatherDisplay:10.37,2013-02-25 23:08:00,
2013-02-25 17:13:00,57.5,28.6,29.73,NW,307,19.6,19.6,33,0.00,CLR,,0.02,WeatherDisplay:10.37,2013-02-25 23:13:00,
2013-02-25 17:18:00,57.1,28.2,29.73,West,272,24.0,24.0,33,0.00,CLR,,0.02,WeatherDisplay:10.37,2013-02-25 23:18:00,
2013-02-25 17:23:00,56.7,27.9,29.73,NNW,333,31.1,31.1,33,0.00,CLR,,0.02,WeatherDisplay:10.37,2013-02-25 23:23:00,
2013-02-25 17:28:00,56.5,28.4,29.73,WSW,256,19.6,19.6,34,0.00,CLR,,0.02,WeatherDisplay:10.37,2013-02-25 23:28:00,
2013-02-25 17:33:00,56.2,28.2,29.73,West,271,20.7,20.7,34,0.00,CLR,,0.02,WeatherDisplay:10.37,2013-02-25 23:33:00,
2013-02-25 17:38:00,55.8,28.5,29.74,NW,308,26.5,26.5,35,0.00,CLR,,0.02,WeatherDisplay:10.37,2013-02-25 23:38:00,
2013-02-25 17:43:00,55.4,28.9,29.75,WNW,285,25.3,25.3,36,0.00,CLR,,0.02,WeatherDisplay:10.37,2013-02-25 23:43:00,
2013-02-25 17:48:00,55.0,28.5,29.75,NNW,340,24.2,24.2,36,0.00,CLR,,0.02,WeatherDisplay:10.37,2013-02-25 23:48:00,
2013-02-25 17:53:00,54.7,28.9,29.76,West,274,25.3,25.3,37,0.00,CLR,,0.02,WeatherDisplay:10.37,2013-02-25 23:53:00,
2013-02-25 17:58:00,54.3,28.6,29.76,NW,304,26.5,26.5,37,0.00,CLR,,0.02,WeatherDisplay:10.37,2013-02-25 23:58:00,
2013-02-25 18:03:00,53.9,28.8,29.77,WNW,294,26.5,26.5,38,0.00,CLR,,0.02,WeatherDisplay:10.37,2013-02-26 00:03:00,
2013-02-25 18:08:00,53.6,28.6,29.77,SW,228,28.8,28.8,38,0.00,CLR,,0.02,WeatherDisplay:10.37,2013-02-26 00:08:00,
2013-02-25 18:13:00,53.3,28.9,29.77,West,279,23.0,23.0,39,0.00,CLR,,0.02,WeatherDisplay:10.37,2013-02-26 00:13:00,
2013-02-25 18:18:00,52.9,29.2,29.77,WSW,249,19.6,19.6,40,0.00,CLR,,0.02,WeatherDisplay:10.37,2013-02-26 00:18:00,
2013-02-25 18:23:00,52.6,29.5,29.78,West,281,20.0,20.0,41,0.00,CLR,,0.02,WeatherDisplay:10.37,2013-02-26 00:23:00,
2013-02-25 18:28:00,52.3,29.3,29.78,NNW,330,15.0,15.0,41,0.00,CLR,,0.02,WeatherDisplay:10.37,2013-02-26 00:28:00,
2013-02-25 18:33:00,51.9,29.5,29.78,NW,305,13.8,13.8,42,0.00,CLR,,0.02,WeatherDisplay:10.37,2013-02-26 00:33:00,
2013-02-25 18:38:00,51.6,29.2,29.78,SW,236,20.7,20.7,42,0.00,CLR,,0.02,WeatherDisplay:10.37,2013-02-26 00:38:00,
2013-02-25 18:43:00,51.4,29.6,29.79,WNW,285,15.0,15.0,43,0.00,CLR,,0.02,WeatherDisplay:10.37,2013-02-26 00:43:00,
2013-02-25 18:48:00,51.3,29.5,29.79,WNW,288,15.0,15.0,43,0.00,CLR,,0.02,WeatherDisplay:10.37,2013-02-26 00:48:00,
2013-02-25 18:53:00,51.3,29.5,29.79,SW,235,19.6,19.6,43,0.00,CLR,,0.02,WeatherDisplay:10.37,2013-02-26 00:53:00,
2013-02-25 18:58:00,51.3,29.5,29.79,West,260,20.7,20.7,43,0.00,CLR,,0.02,WeatherDisplay:10.37,2013-02-26 00:58:00,
2013-02-25 19:03:00,51.4,29.6,29.79,West,269,24.2,24.2,43,0.00,CLR,,0.02,WeatherDisplay:10.37,2013-02-26 01:03:00,
2013-02-25 19:08:00,51.4,29.6,29.80,SW,229,19.6,19.6,43,0.00,CLR,,0.02,WeatherDisplay:10.37,2013-02-26 01:08:00,
2013-02-25 19:13:00,51.4,29.6,29.80,WNW,285,21.9,21.9,43,0.00,CLR,,0.02,WeatherDisplay:10.37,2013-02-26 01:13:00,
2013-02-25 19:18:00,51.4,29.6,29.80,West,281,25.3,25.3,43,0.00,CLR,,0.02,WeatherDisplay:10.37,2013-02-26 01:18:00,
2013-02-25 19:23:00,51.6,29.8,29.81,NW,307,33.4,33.4,43,0.00,CLR,,0.02,WeatherDisplay:10.37,2013-02-26 01:23:00,
2013-02-25 19:28:00,51.6,29.8,29.81,West,281,29.9,29.9,43,0.00,CLR,,0.02,WeatherDisplay:10.37,2013-02-26 01:28:00,
2013-02-25 19:33:00,51.4,29.6,29.82,West,276,21.9,21.9,43,0.00,CLR,,0.02,WeatherDisplay:10.37,2013-02-26 01:33:00,
2013-02-25 19:38:00,51.2,30.0,29.82,West,277,25.3,25.3,44,0.00,CLR,,0.02,WeatherDisplay:10.37,2013-02-26 01:38:00,
2013-02-25 19:43:00,51.0,29.8,29.82,WNW,285,21.9,21.9,44,0.00,CLR,,0.02,WeatherDisplay:10.37,2013-02-26 01:43:00,
2013-02-25 19:48:00,50.8,30.2,29.82,NNW,342,23.0,23.0,45,0.00,CLR,,0.02,WeatherDisplay:10.37,2013-02-26 01:48:00,
2013-02-25 19:53:00,50.6,30.0,29.83,WNW,297,16.1,16.1,45,0.00,CLR,,0.02,WeatherDisplay:10.37,2013-02-26 01:53:00,
2013-02-25 19:58:00,50.4,30.4,29.83,NW,306,23.0,23.0,46,0.00,CLR,,0.02,WeatherDisplay:10.37,2013-02-26 01:58:00,
2013-02-25 20:03:00,50.3,30.3,29.83,West,271,19.6,19.6,46,0.00,CLR,,0.02,WeatherDisplay:10.37,2013-02-26 02:03:00,
2013-02-25 20:08:00,50.2,30.2,29.84,West,273,19.6,19.6,46,0.00,CLR,,0.02,WeatherDisplay:10.37,2013-02-26 02:08:00,
2013-02-25 20:13:00,50.2,30.7,29.84,WNW,302,18.4,18.4,47,0.00,CLR,,0.02,WeatherDisplay:10.37,2013-02-26 02:13:00,
2013-02-25 20:18:00,50.1,30.6,29.84,NNW,345,27.6,27.6,47,0.00,CLR,,0.02,WeatherDisplay:10.37,2013-02-26 02:18:00,
2013-02-25 20:23:00,49.9,30.5,29.85,NW,312,16.1,16.1,47,0.00,CLR,,0.02,WeatherDisplay:10.37,2013-02-26 02:23:00,
2013-02-25 20:28:00,49.7,30.8,29.85,NNE,14,19.6,19.6,48,0.00,CLR,,0.02,WeatherDisplay:10.37,2013-02-26 02:28:00,
2013-02-25 20:33:00,49.7,30.8,29.85,West,267,13.8,13.8,48,0.00,CLR,,0.02,WeatherDisplay:10.37,2013-02-26 02:33:00,
2013-02-25 20:38:00,49.5,30.6,29.85,WNW,297,19.6,19.6,48,0.00,CLR,,0.02,WeatherDisplay:10.37,2013-02-26 02:38:00,
2013-02-25 20:43:00,49.5,30.6,29.85,NW,314,18.0,18.0,48,0.00,CLR,,0.02,WeatherDisplay:10.37,2013-02-26 02:43:00,
2013-02-25 20:48:00,49.6,30.7,29.86,WNW,288,11.5,11.5,48,0.00,CLR,,0.02,WeatherDisplay:10.37,2013-02-26 02:48:00,
2013-02-25 20:53:00,49.5,30.6,29.86,NW,304,11.5,11.5,48,0.00,CLR,,0.02,WeatherDisplay:10.37,2013-02-26 02:53:00,
2013-02-25 20:58:00,49.4,30.5,29.86,NW,309,8.1,8.7,48,0.00,CLR,,0.02,WeatherDisplay:10.37,2013-02-26 02:58:00,
2013-02-25 21:03:00,49.3,30.4,29.86,WNW,300,15.0,15.0,48,0.00,CLR,,0.02,WeatherDisplay:10.37,2013-02-26 03:03:00,
2013-02-25 21:08:00,49.2,30.8,29.86,WNW,302,16.1,16.1,49,0.00,CLR,,0.02,WeatherDisplay:10.37,2013-02-26 03:08:00,
2013-02-25 21:13:00,49.2,30.8,29.86,WNW,284,13.8,13.8,49,0.00,CLR,,0.02,WeatherDisplay:10.37,2013-02-26 03:13:00,
2013-02-25 21:18:00,49.1,30.7,29.86,West,259,11.5,11.5,49,0.00,CLR,,0.02,WeatherDisplay:10.37,2013-02-26 03:18:00,
2013-02-25 21:23:00,49.0,30.7,29.86,WNW,286,11.5,11.5,49,0.00,CLR,,0.02,WeatherDisplay:10.37,2013-02-26 03:23:00,
2013-02-25 21:28:00,49.0,30.7,29.86,South,181,12.7,12.7,49,0.00,CLR,,0.02,WeatherDisplay:10.37,2013-02-26 03:28:00,
2013-02-25 21:33:00,49.0,30.7,29.86,WNW,291,12.7,12.7,49,0.00,CLR,,0.02,WeatherDisplay:10.37,2013-02-26 03:33:00,
2013-02-25 21:38:00,49.1,30.7,29.86,WNW,303,10.4,10.4,49,0.00,CLR,,0.02,WeatherDisplay:10.37,2013-02-26 03:38:00,
2013-02-25 21:43:00,49.2,30.8,29.87,WNW,290,11.5,11.5,49,0.00,CLR,,0.02,WeatherDisplay:10.37,2013-02-26 03:43:00,
2013-02-25 21:48:00,49.0,30.7,29.87,WNW,301,11.5,11.5,49,0.00,CLR,,0.02,WeatherDisplay:10.37,2013-02-26 03:48:00,
2013-02-25 21:53:00,48.8,30.5,29.86,WNW,294,9.2,9.2,49,0.00,CLR,,0.02,WeatherDisplay:10.37,2013-02-26 03:53:00,
2013-02-25 21:58:00,48.8,31.0,29.86,North,357,11.5,11.5,50,0.00,CLR,,0.02,WeatherDisplay:10.37,2013-02-26 03:58:00,
2013-02-25 22:03:00,48.7,30.9,29.86,WNW,286,11.5,11.5,50,0.00,CLR,,0.02,WeatherDisplay:10.37,2013-02-26 04:03:00,
2013-02-25 22:08:00,48.7,30.9,29.87,WSW,255,8.1,8.1,50,0.00,CLR,,0.02,WeatherDisplay:10.37,2013-02-26 04:08:00,
2013-02-25 22:13:00,48.8,31.0,29.86,West,271,10.4,10.4,50,0.00,CLR,,0.02,WeatherDisplay:10.37,2013-02-26 04:13:00,
2013-02-25 22:18:00,48.6,30.8,29.87,WNW,297,17.3,17.3,50,0.00,CLR,,0.02,WeatherDisplay:10.37,2013-02-26 04:18:00,
2013-02-25 22:23:00,48.8,30.5,29.87,West,270,13.8,13.8,49,0.00,CLR,,0.02,WeatherDisplay:10.37,2013-02-26 04:23:00,
2013-02-25 22:28:00,48.8,30.5,29.87,ENE,71,9.2,9.2,49,0.00,CLR,,0.02,WeatherDisplay:10.37,2013-02-26 04:28:00,
2013-02-25 22:33:00,48.8,30.5,29.87,WNW,301,9.2,9.2,49,0.00,CLR,,0.02,WeatherDisplay:10.37,2013-02-26 04:33:00,
2013-02-25 22:38:00,48.8,30.5,29.87,WNW,302,9.2,9.2,49,0.00,CLR,,0.02,WeatherDisplay:10.37,2013-02-26 04:38:00,
2013-02-25 22:43:00,48.9,30.6,29.87,WNW,284,16.1,16.1,49,0.00,CLR,,0.02,WeatherDisplay:10.37,2013-02-26 04:43:00,
2013-02-25 22:48:00,48.9,30.6,29.88,NW,325,17.3,17.3,49,0.00,CLR,,0.02,WeatherDisplay:10.37,2013-02-26 04:48:00,
2013-02-25 22:53:00,49.0,30.7,29.88,West,274,9.2,9.2,49,0.00,CLR,,0.02,WeatherDisplay:10.37,2013-02-26 04:53:00,
2013-02-25 22:58:00,48.7,30.4,29.88,WNW,294,11.5,11.5,49,0.00,CLR,,0.02,WeatherDisplay:10.37,2013-02-26 04:58:00,
2013-02-25 23:00:00,48.7,30.4,29.88,WNW,291,8.1,8.1,49,0.00,CLR,,0.02,WeatherDisplay:10.37,2013-02-26 05:00:00,
2013-02-25 23:05:00,48.5,30.2,29.88,WNW,297,9.2,9.2,49,0.00,CLR,,0.02,WeatherDisplay:10.37,2013-02-26 05:05:00,
2013-02-25 23:10:00,48.5,30.2,29.88,WNW,294,11.0,11.0,49,0.00,CLR,,0.02,WeatherDisplay:10.37,2013-02-26 05:10:00,
2013-02-25 23:15:00,48.3,30.5,29.88,NW,314,5.8,5.8,50,0.00,CLR,,0.02,WeatherDisplay:10.37,2013-02-26 05:15:00,
2013-02-25 23:20:00,48.2,30.4,29.88,West,274,8.1,8.1,50,0.00,CLR,,0.02,WeatherDisplay:10.37,2013-02-26 05:20:00,
2013-02-25 23:25:00,48.1,30.3,29.88,WNW,294,11.5,11.5,50,0.00,CLR,,0.02,WeatherDisplay:10.37,2013-02-26 05:25:00,
2013-02-25 23:30:00,47.7,30.4,29.88,NW,305,8.1,8.1,51,0.00,CLR,,0.02,WeatherDisplay:10.37,2013-02-26 05:30:00,
2013-02-25 23:35:00,47.6,30.3,29.88,West,262,5.8,5.8,51,0.00,CLR,,0.02,WeatherDisplay:10.37,2013-02-26 05:35:00,
2013-02-25 23:40:00,47.5,30.3,29.88,SW,226,8.1,8.1,51,0.00,CLR,,0.02,WeatherDisplay:10.37,2013-02-26 05:40:00,
2013-02-25 23:45:00,47.4,30.2,29.88,NW,319,6.9,6.9,51,0.00,CLR,,0.02,WeatherDisplay:10.37,2013-02-26 05:45:00,
2013-02-25 23:50:00,47.3,30.5,29.88,WNW,285,10.4,10.4,52,0.00,CLR,,0.02,WeatherDisplay:10.37,2013-02-26 05:50:00,
2013-02-25 23:55:00,47.3,30.1,29.88,WSW,252,10.4,10.4,51,0.00,CLR,,0.02,WeatherDisplay:10.37,2013-02-26 05:55:00,